Hibbing, MN

2:36 AM CDT on March 30, 2017 (GMT -0500)
Chisholm-hibbing

Weather History for KHIB - September, 2012

Change the Weather History Date:

Sunday, September 23, 2012

  Actual Average Record
Temperature  
Mean Temperature 40 °F -  
Max Temperature 55 °F 59 °F 82 °F (2007)
Min Temperature 25 °F 35 °F 25 °F (1971)
Degree Days  
Heating Degree Days 26    
Moisture  
Dew Point 28 °F    
Average Humidity 69    
Maximum Humidity 96    
Minimum Humidity 37    
Precipitation  
Precipitation 0.00 in - - ()
Sea Level Pressure  
Sea Level Pressure 30.23 in    
Wind  
Wind Speed 5 mph (WNW)    
Max Wind Speed 16 mph    
Max Gust Speed 21 mph    
Visibility 10 miles    
Events      
Averages and records for this station are not official NWS values.
T = Trace of Precipitation, MM = Missing Value Source: NWS Daily Summary

Daily Weather History Graph

Daily Weather History Graph

Search for Another Location

Airport or City:

Trip Planner

Search our weather history database for the weather conditions in past years. The results will help you decide how hot, cold, wet, or windy it might be!

Date:

Astronomy

Sep. 23, 2012 Rise Set
Actual Time 7:00 AM CDT 7:06 PM CDT
Civil Twilight 6:29 AM CDT 7:36 PM CDT
Nautical Twilight 5:53 AM CDT 8:12 PM CDT
Astronomical Twilight 5:16 AM CDT 8:49 PM CDT
Moon 3:29 PM CDT (9/23) No Moon Set
Length of Visible Light 13h 06m
Length of Day
12h 05m
First Quarter, 60% of the Moon is Illuminated
Sep 23
First Quarter
Sep 29
Full
Oct 8
Last Quarter
Oct 15
New
Oct 21
First Quarter

Hourly Weather History & Observations

Time (CDT) Temp. Windchill Dew Point Humidity Pressure Visibility Wind Dir Wind Speed Gust Speed Precip Events Conditions
12:53 AM 32.0 °F 28.7 °F 28.0 °F 85% 30.25 in 10.0 mi WNW 3.5 mph - N/A   Clear
1:53 AM 34.0 °F 28.8 °F 30.0 °F 85% 30.24 in 10.0 mi WNW 5.8 mph - N/A   Clear
2:53 AM 33.1 °F 26.9 °F 28.9 °F 85% 30.24 in 10.0 mi WNW 6.9 mph - N/A   Clear
3:53 AM 28.0 °F 22.8 °F 25.0 °F 88% 30.25 in 10.0 mi NW 4.6 mph - N/A   Clear
4:53 AM 32.0 °F 26.4 °F 28.9 °F 88% 30.25 in 10.0 mi WNW 5.8 mph - N/A   Clear
5:53 AM 30.9 °F - 27.0 °F 85% 30.27 in 10.0 mi Calm Calm - N/A   Clear
6:53 AM 25.0 °F - 24.1 °F 96% 30.28 in 10.0 mi Calm Calm - N/A   Clear
7:53 AM 28.0 °F - 25.0 °F 88% 30.29 in 10.0 mi Calm Calm - N/A   Clear
8:53 AM 37.9 °F 33.5 °F 32.0 °F 79% 30.30 in 10.0 mi NNW 5.8 mph - N/A   Clear
9:53 AM 42.1 °F 35.7 °F 32.0 °F 67% 30.30 in 10.0 mi WNW 11.5 mph - N/A   Clear
10:53 AM 45.0 °F 37.9 °F 30.9 °F 58% 30.30 in 10.0 mi NW 16.1 mph 20.7 mph N/A   Scattered Clouds
11:53 AM 46.9 °F - 28.9 °F 50% 30.30 in 10.0 mi NW 12.7 mph - N/A   Clear
12:53 PM 50.0 °F - 30.0 °F 46% 30.29 in 10.0 mi NW 10.4 mph - N/A   Clear
1:53 PM 52.0 °F - 28.9 °F 41% 30.27 in 10.0 mi WNW 9.2 mph 20.7 mph N/A   Clear
2:53 PM 53.1 °F - 28.0 °F 38% 30.25 in 10.0 mi NW 8.1 mph - N/A   Clear
3:53 PM 53.1 °F - 27.0 °F 37% 30.22 in 10.0 mi WSW 8.1 mph - N/A   Clear
4:53 PM 54.0 °F - 28.0 °F 37% 30.20 in 10.0 mi WNW 11.5 mph - N/A   Clear
5:53 PM 53.1 °F - 27.0 °F 37% 30.19 in 10.0 mi WSW 6.9 mph - N/A   Clear
6:53 PM 48.9 °F - 28.0 °F 44% 30.19 in 10.0 mi West 3.5 mph - N/A   Clear
7:53 PM 43.0 °F 41.3 °F 30.0 °F 60% 30.17 in 10.0 mi SW 3.5 mph - N/A   Clear
8:53 PM 32.0 °F - 28.0 °F 85% 30.17 in 10.0 mi Calm Calm - N/A   Clear
9:53 PM 30.9 °F 27.5 °F 27.0 °F 85% 30.14 in 10.0 mi SW 3.5 mph - N/A   Clear
10:53 PM 30.0 °F - 27.0 °F 88% 30.12 in 10.0 mi Calm Calm - N/A   Clear
11:53 PM 28.0 °F - 26.1 °F 92% 30.10 in 10.0 mi Calm Calm - N/A   Clear